Regional Weather Roundup
Issued by NWS

Home | Current Version | Previous Version | Text Only | Print | Product List | Glossary On
Versions: 1 2 3 4 5 6 7 8 9 10 11 12 13 14 15 16 17 18 19 20 21 22 23 24 25 26 27 28 29 30 31 32 33 34 35 36 37 38 39 40 41 42 43 44 45 46 47 48 49 50
000
ASUS44 KMEG 251610
RWRTN
TENNESSEE HOURLY STATE WEATHER ROUNDUP
NATIONAL WEATHER SERVICE MEMPHIS TN
1100 AM CDT SUN JUN 25 2017

TNZ002-004-019-021-049-052-054-088>092-251700-
WEST TENNESSEE

CITY           SKY/WX    TMP DP  RH WIND       PRES   REMARKS
MEMPHIS INTL   MOSUNNY   82  58  43 NE6       30.26R
NWS MEMPHIS      N/A     79 N/A N/A MISG        N/A
JACKSON        SUNNY     80  56  43 NE9       30.26R
SOMERVILLE     SUNNY     79  57  47 VRB7      30.25S
COVINGTON      SUNNY     81  54  39 N9        30.26S
UNION CITY     SUNNY     79  52  38 VRB5      30.24S
BOLIVAR        SUNNY     77  55  47 VRB3      30.25S
PARIS          SUNNY     77  52  41 N6        30.24S
HUNTINGDON     SUNNY     77  52  41 VRB6G12   30.24S
LEXINGTON      SUNNY     77  54  44 NW9       30.25R
SELMER         SUNNY     75  55  50 N7        30.25S
SAVANNAH       SUNNY     77  55  47 VRB6G12   30.24S
$$

TNZ008-025-027-028-033-062-065-066-251700-
NORTH MIDDLE TENNESSEE

CITY           SKY/WX    TMP DP  RH WIND       PRES   REMARKS
NASHVILLE      MOSUNNY   79  49  34 N9        30.25R
PORTLAND       SUNNY     75  50  41 VRB5      30.24S
CLARKSVILLE    SUNNY     77  50  38 VRB6      30.24S
SMYRNA         SUNNY     78  54  43 N8        30.25S
COOKEVILLE     SUNNY     73  52  46 VRB6G13   30.24R
GALLATIN       SUNNY     77  50  38 VRB3G12   30.27S
CROSSVILLE     MOSUNNY   71  50  47 N12       30.26R
$$

TNZ061-075-076-078-094-096-097-251700-
SOUTH MIDDLE TENNESSEE

CITY           SKY/WX    TMP DP  RH WIND       PRES   REMARKS
FAYETTEVILLE   SUNNY     72  59  64 NE9       30.24S
TULLAHOMA      SUNNY     73  48  40 N10       30.25S
WINCHESTER     SUNNY     70  57  64 VRB5        N/A
MCMINNVILLE    SUNNY     75  54  46 N8        30.24S
COLUMBIA       SUNNY     77  52  41 N9G15     30.23R
SHELBYVILLE    SUNNY     75  54  46 N12       30.24S
$$

TNZ017-018-042-046-047-251700-
NORTHEAST TENNESSEE

CITY           SKY/WX    TMP DP  RH WIND       PRES   REMARKS
TRI CITIES     CLOUDY    73  57  57 N3        30.21R
ELIZABETHTON   CLOUDY    72  57  60 W6        30.21R
$$

TNZ012-013-036-069-073-074-251700-
CENTRAL EAST TENNESSEE

CITY           SKY/WX    TMP DP  RH WIND       PRES   REMARKS
KNOXVILLE      PTSUNNY   70  57  63 NW5       30.22R
OAK RIDGE      PTSUNNY   76  52  43 VRB3      30.23R
DOWNTOWN KNOXV SUNNY     72  59  64 CALM      30.22R
GATLINBURG     SUNNY     72  57  60 CALM      30.21S
MORRISTOWN     SUNNY     72  57  60 CALM      30.21F
JACKSBORO      SUNNY     73  52  46 CALM      30.26R
$$

TNZ083-085-099-251700-
SOUTHEAST TENNESSEE

CITY           SKY/WX    TMP DP  RH WIND       PRES   REMARKS
CHATTANOOGA    CLOUDY    72  55  55 N12       30.22R
$$

SKY/WX REPORTED AS FAIR MEANS FEW OR NO CLOUDS BELOW
12 THOUSAND FEET.





USA.gov is the U.S. government's official web portal to all federal, state and local government web resources and services.